This is the latest recevied weather packets stored in our database for station/object OE9FWV-10. If no packets are shown the sender has not sent any weather packets the latest 10 day(s).
| Time | Temp. | Humidity | Pressure | Rain* | Wind** | Luminosity | Snow |
|---|---|---|---|---|---|---|---|
| 1787683351 | 30° C | 30% | 1018.4 hPa | - | - | - | - |
| 1787682450 | 30.56° C | 30% | 1018.5 hPa | - | - | - | - |
| 1787681549 | 31.11° C | 29% | 1018.4 hPa | - | - | - | - |
| 1787680648 | 30.56° C | 30% | 1018.3 hPa | - | - | - | - |
| 1787679748 | 31.11° C | 29% | 1018.1 hPa | - | - | - | - |
| 1787678848 | 30.56° C | 29% | 1017.9 hPa | - | - | - | - |
| 1787677948 | 31.67° C | 28% | 1017.9 hPa | - | - | - | - |
| 1787677047 | 32.22° C | 27% | 1017.8 hPa | - | - | - | - |
| 1787676147 | 32.22° C | 28% | 1017.8 hPa | - | - | - | - |
| 1787675246 | 31.11° C | 29% | 1017.7 hPa | - | - | - | - |
| 1787674346 | 32.22° C | 28% | 1017.6 hPa | - | - | - | - |
| 1787673445 | 31.11° C | 28% | 1017.5 hPa | - | - | - | - |
| 1787672544 | 31.67° C | 28% | 1017.8 hPa | - | - | - | - |
| 1787671644 | 31.67° C | 27% | 1017.8 hPa | - | - | - | - |
| 1787670743 | 33.33° C | 26% | 1017.8 hPa | - | - | - | - |
| 1787668939 | 31.67° C | 28% | 1017.8 hPa | - | - | - | - |
| 1787668038 | 31.67° C | 28% | 1017.8 hPa | - | - | - | - |
| 1787667137 | 30.56° C | 29% | 1017.8 hPa | - | - | - | - |
| 1787666236 | 30.56° C | 29% | 1017.9 hPa | - | - | - | - |
| 1787665336 | 30° C | 29% | 1017.8 hPa | - | - | - | - |
| 1787664435 | 30.56° C | 29% | 1017.7 hPa | - | - | - | - |
| 1787663550 | 30° C | 30% | 1017.7 hPa | - | - | - | - |
| 1787662634 | 30.56° C | 29% | 1017.8 hPa | - | - | - | - |
| 1787661733 | 30° C | 30% | 1017.7 hPa | - | - | - | - |
| 1787660833 | 30.56° C | 30% | 1017.8 hPa | - | - | - | - |
* Rain since midnight (hover to see other rain measurements)
** Current wind speed in m/s (hover to see current wind gust speed)